Preview of NWS' New Version of Forecast
This preview is not operational and should not be used for support decisions.

Terminal Aerodrome Forecast (TAF)

Issued by National Weather Service (NWS)

                            
000
FTAK31 PAFC 232340
TAFADL
TAF
PADL 232340Z 2400/2424 15006KT P6SM BKN040
     FM240600 VRB06KT P6SM FEW050=